IRNSS-1E

Last updated on Wed Oct 29 2025 00:02:48 GMT+0000 (Coordinated Universal Time)

1 41241U 16003A 25300.74400449 -.00000280 00000+0 00000+0 0 9993 2 41241 32.7246 63.1203 0021904 183.5260 169.1329 1.00266005 35744
UTC large
Height (km)
Speed (km/s)
/
Latitude / Longitude
Inclination (degrees)
Orbital Period (minutes)
Azimuth
Elevation
Range (km)
Doppler Factor

Next 0 passes for location: London (51.5072 / 0.1276)

Sorry there are no passes over London.